Weather History for Salt Lake City, UT

Change the Weather History Date:

Friday, September 27, 2013

  Actual Average Record
Temperature  
Mean Temperature 48 °F 61 °F  
Max Temperature 52 °F 74 °F 91 °F (1969)
Min Temperature 43 °F 48 °F 31 °F (1934)
Degree Days  
Heating Degree Days 17 5  
Month to date heating degree days 43 66  
Since 1 July heating degree days 43 71  
Cooling Degree Days 0 1  
Month to date cooling degree days 216 113  
Year to date cooling degree days 1762 1149  
Moisture  
Dew Point 36 °F    
Average Humidity 68    
Maximum Humidity 82    
Minimum Humidity 54    
Precipitation  
Precipitation 0.03 in 0.05 in 0.84 in (1982)
Month to date precipitation 1.17 1.07  
Year to date precipitation 8.61 11.58  
Snow  
Snow 0.00 in 0.00 in - ()
Month to date snowfall 0.0 0.0  
Since 1 July snowfall 0.0 0.0  
Snow Depth 0.00 in    
Sea Level Pressure  
Sea Level Pressure 30.02 in    
Wind  
Wind Speed 5 mph (ESE)    
Max Wind Speed 14 mph    
Max Gust Speed 20 mph    
Visibility 10 miles    
Events Rain    
T = Trace of Precipitation, MM = Missing Value Source: NWS Daily Summary

Daily Weather History Graph

Daily Weather History Graph

Search for Another Location

Airport:

Trip Planner

Search our weather history database for the weather conditions in past years. The results will help you decide how hot, cold, wet, or windy it might be!

Date:

Astronomy

Sep. 27, 2013 Rise Set
Actual Time 7:20 AM MDT 7:16 PM MDT
Civil Twilight 6:53 AM MDT 7:43 PM MDT
Nautical Twilight 6:21 AM MDT 8:15 PM MDT
Astronomical Twilight 5:49 AM MDT 8:47 PM MDT
Moon 12:17 AM MDT (9/27) 2:58 PM MDT (9/27)
Length of Visible Light 12h 49m
Length of Day
11h 55m
Last Quarter, 44% of the Moon is Illuminated
Sep 27
Last Quarter
Oct 4
New
Oct 11
First Quarter
Oct 18
Full
Oct 26
Last Quarter

Hourly Weather History & Observations

Time (MDT) Temp. Windchill Dew Point Humidity Pressure Visibility Wind Dir Wind Speed Gust Speed Precip Events Conditions
12:53 AM 46.9 °F - 37.0 °F 68% 29.81 in 10.0 mi North 4.6 mph - N/A   Overcast
1:53 AM 46.0 °F 43.9 °F 37.0 °F 71% 29.81 in 10.0 mi West 4.6 mph - N/A   Mostly Cloudy
2:53 AM 46.9 °F - 36.0 °F 66% 29.82 in 10.0 mi North 4.6 mph - N/A   Mostly Cloudy
3:53 AM 46.9 °F - 37.0 °F 68% 29.83 in 10.0 mi North 4.6 mph - N/A   Mostly Cloudy
4:53 AM 46.0 °F 44.8 °F 37.0 °F 71% 29.86 in 10.0 mi North 3.5 mph - N/A   Mostly Cloudy
5:53 AM 46.9 °F - 35.1 °F 63% 29.88 in 10.0 mi NNW 9.2 mph - N/A   Mostly Cloudy
6:53 AM 44.1 °F 41.5 °F 35.1 °F 71% 29.91 in 10.0 mi North 4.6 mph - N/A   Mostly Cloudy
7:53 AM 45.0 °F - 34.0 °F 65% 29.94 in 10.0 mi Calm Calm - N/A   Scattered Clouds
8:53 AM 45.0 °F - 35.1 °F 68% 29.95 in 10.0 mi Calm Calm - N/A   Mostly Cloudy
9:53 AM 46.9 °F - 35.1 °F 63% 29.98 in 10.0 mi WNW 8.1 mph - N/A   Overcast
10:53 AM 45.0 °F 41.8 °F 35.1 °F 68% 30.02 in 8.0 mi Variable 5.8 mph - 0.00 in Rain Rain
11:10 AM 42.8 °F 38.0 °F 35.6 °F 76% 30.06 in 10.0 mi WSW 8.1 mph - 0.02 in Rain Light Rain
11:53 AM 43.0 °F 37.2 °F 37.9 °F 82% 30.05 in 10.0 mi SW 10.4 mph - 0.03 in   Mostly Cloudy
12:20 PM 44.6 °F 40.2 °F 37.4 °F 76% 30.09 in 10.0 mi SW 8.1 mph - 0.00 in Rain Light Rain
12:46 PM 44.6 °F 40.2 °F 37.4 °F 76% 30.09 in 10.0 mi South 8.1 mph - 0.00 in   Mostly Cloudy
12:53 PM 45.0 °F 41.8 °F 37.0 °F 74% 30.06 in 10.0 mi SSW 5.8 mph - 0.00 in   Mostly Cloudy
1:53 PM 48.0 °F - 37.0 °F 66% 30.07 in 10.0 mi SSE 6.9 mph - N/A   Mostly Cloudy
2:53 PM 48.9 °F - 36.0 °F 61% 30.07 in 10.0 mi South 4.6 mph - 0.00 in   Mostly Cloudy
3:53 PM 50.0 °F - 37.9 °F 63% 30.08 in 10.0 mi NE 3.5 mph - 0.00 in   Mostly Cloudy
4:53 PM 51.1 °F - 36.0 °F 56% 30.09 in 10.0 mi ESE 4.6 mph - N/A   Mostly Cloudy
5:53 PM 51.1 °F - 36.0 °F 56% 30.10 in 10.0 mi ESE 6.9 mph - N/A   Mostly Cloudy
6:53 PM 52.0 °F - 34.0 °F 50% 30.11 in 10.0 mi ESE 8.1 mph - N/A   Mostly Cloudy
7:53 PM 50.0 °F - 34.0 °F 54% 30.12 in 10.0 mi East 5.8 mph - N/A   Mostly Cloudy
8:53 PM 48.0 °F - 35.1 °F 61% 30.14 in 10.0 mi SE 5.8 mph - N/A   Scattered Clouds
9:53 PM 46.0 °F 41.4 °F 34.0 °F 63% 30.15 in 10.0 mi ESE 9.2 mph - N/A   Partly Cloudy
10:53 PM 46.0 °F 41.9 °F 35.1 °F 66% 30.17 in 10.0 mi SE 8.1 mph - N/A   Scattered Clouds
11:53 PM 44.1 °F 39.0 °F 33.1 °F 65% 30.18 in 10.0 mi ESE 9.2 mph - N/A   Partly Cloudy